Zurück zum Katalog

SL-12 R/B

AUX MOTOR

AktivHEO
NORAD 33384·ROCKET BODY·🇷🇺 Russia

Gestartet Sep 25, 2008 von Baikonur Cosmodrome

Loading…

Nächste Überflüge (nächste 24 Stunden)

TLE

AktuellSource: Space-Track

Epoche: Sep 14, 2026, 14:41 UTC

1 33384U 08046G   26257.61207370  .00000032  00000-0  52908-3 0  9999
2 33384  65.2976   5.8628 5663824 231.2784  63.0695  4.23400328277683

Verfolge SL-12 R/B in Echtzeit mit AllMySat

Download on the App Store